VOZ541 YSSY-YBCG

Flight info

Callsign VOZ541
Flight time 1h 6m
Altitude 35000
Route OLSEM Y193 BANDA Y43 GOMOL
Aircraft B738/M-SDE2E3FGHIRWXY/LB1

Departure

Time 2026-05-06 09:14
Airport Sydney Kingsford Smith International Airport (YSSY)

Arrival

Time 2026-05-06 10:21
Airport Gold Coast Airport (YBCG)
Time Latitude Longitude Altitude Speed Heading
2026-05-06 08:35 -33.93556 151.17990 29 ft 0 kts 280°
2026-05-06 08:58 -33.93559 151.18016 29 ft 4 kts 279°
2026-05-06 08:58 -33.93563 151.18042 29 ft 4 kts 268°
2026-05-06 08:59 -33.93554 151.18062 29 ft 4 kts 197°
2026-05-06 08:59 -33.93529 151.18068 29 ft 4 kts 190°
2026-05-06 08:59 -33.93522 151.18069 29 ft 0 kts 189°
2026-05-06 09:03 -33.93525 151.18069 29 ft 1 kts 189°
2026-05-06 09:04 -33.93544 151.18065 29 ft 4 kts 190°
2026-05-06 09:04 -33.93583 151.18057 29 ft 7 kts 189°
2026-05-06 09:04 -33.93641 151.18051 29 ft 10 kts 182°
2026-05-06 09:04 -33.93717 151.18060 29 ft 12 kts 167°
2026-05-06 09:05 -33.93785 151.18017 29 ft 13 kts 251°
2026-05-06 09:05 -33.93807 151.17917 29 ft 12 kts 256°
2026-05-06 09:05 -33.93830 151.17819 29 ft 12 kts 252°
2026-05-06 09:05 -33.93895 151.17778 28 ft 12 kts 172°
2026-05-06 09:06 -33.93985 151.17801 28 ft 15 kts 167°
2026-05-06 09:06 -33.94095 151.17830 28 ft 18 kts 167°
2026-05-06 09:06 -33.94225 151.17864 29 ft 21 kts 168°
2026-05-06 09:06 -33.94376 151.17903 29 ft 22 kts 168°
2026-05-06 09:07 -33.94513 151.17882 29 ft 22 kts 181°
2026-05-06 09:07 -33.94663 151.17919 29 ft 19 kts 167°
2026-05-06 09:07 -33.94803 151.17954 29 ft 22 kts 168°
2026-05-06 09:07 -33.94945 151.17992 29 ft 16 kts 167°
2026-05-06 09:08 -33.95050 151.18020 29 ft 13 kts 167°
2026-05-06 09:08 -33.95099 151.18110 29 ft 16 kts 82°
2026-05-06 09:08 -33.95072 151.18251 29 ft 19 kts 79°
2026-05-06 09:08 -33.95044 151.18409 29 ft 16 kts 76°
2026-05-06 09:09 -33.95092 151.18525 29 ft 18 kts 146°
2026-05-06 09:09 -33.95197 151.18635 29 ft 22 kts 137°
2026-05-06 09:09 -33.95336 151.18725 29 ft 24 kts 166°
2026-05-06 09:09 -33.95510 151.18770 29 ft 27 kts 168°
2026-05-06 09:10 -33.95700 151.18819 29 ft 29 kts 168°
2026-05-06 09:10 -33.95903 151.18871 29 ft 31 kts 168°
2026-05-06 09:10 -33.96092 151.18920 29 ft 27 kts 168°
2026-05-06 09:10 -33.96268 151.18966 29 ft 25 kts 167°
2026-05-06 09:11 -33.96432 151.19009 29 ft 23 kts 168°
2026-05-06 09:11 -33.96588 151.19049 29 ft 23 kts 168°
2026-05-06 09:11 -33.96719 151.19075 29 ft 17 kts 183°
2026-05-06 09:11 -33.96841 151.19070 29 ft 18 kts 168°
2026-05-06 09:12 -33.96967 151.19103 29 ft 18 kts 167°
2026-05-06 09:12 -33.97083 151.19134 29 ft 12 kts 163°
2026-05-06 09:12 -33.97123 151.19207 29 ft 11 kts 86°
2026-05-06 09:12 -33.97107 151.19300 31 ft 12 kts 77°
2026-05-06 09:13 -33.97049 151.19365 26 ft 13 kts
2026-05-06 09:13 -33.97008 151.19357 25 ft 0 kts 347°
2026-05-06 09:13 -33.97006 151.19356 25 ft 3 kts 347°
2026-05-06 09:13 -33.96758 151.19291 24 ft 72 kts 348°
2026-05-06 09:14 -33.96053 151.19111 27 ft 133 kts 348°
2026-05-06 09:14 -33.95003 151.18864 244 ft 163 kts 348°
2026-05-06 09:14 -33.93905 151.18602 1006 ft 165 kts 350°
2026-05-06 09:14 -33.92662 151.18711 1207 ft 201 kts 26°
2026-05-06 09:15 -33.91536 151.19845 1523 ft 221 kts 47°
2026-05-06 09:15 -33.90368 151.21141 1914 ft 235 kts 42°
2026-05-06 09:15 -33.89046 151.22430 2358 ft 248 kts 39°
2026-05-06 09:15 -33.87634 151.23721 2849 ft 263 kts 38°
2026-05-06 09:16 -33.86147 151.25039 3746 ft 261 kts 38°
2026-05-06 09:16 -33.84700 151.26310 4730 ft 258 kts 39°
2026-05-06 09:16 -33.83576 151.27942 5062 ft 254 kts 64°
2026-05-06 09:16 -33.82933 151.29937 5398 ft 258 kts 71°
2026-05-06 09:17 -33.82379 151.32004 5700 ft 260 kts 71°
2026-05-06 09:17 -33.81846 151.34061 5995 ft 262 kts 72°
2026-05-06 09:17 -33.81232 151.36137 6301 ft 266 kts 60°
2026-05-06 09:17 -33.80143 151.37918 6615 ft 265 kts 50°
2026-05-06 09:18 -33.78957 151.39637 6914 ft 268 kts 49°
2026-05-06 09:18 -33.77767 151.41366 7194 ft 268 kts 50°
2026-05-06 09:18 -33.76586 151.43092 7487 ft 269 kts 50°
2026-05-06 09:18 -33.75391 151.44846 7784 ft 272 kts 50°
2026-05-06 09:19 -33.74190 151.46615 8063 ft 274 kts 49°
2026-05-06 09:19 -33.72975 151.48410 8376 ft 279 kts 49°
2026-05-06 09:19 -33.71755 151.50214 8674 ft 279 kts 49°
2026-05-06 09:19 -33.70922 151.51445 8886 ft 283 kts 49°
2026-05-06 09:20 -33.69261 151.53904 9288 ft 286 kts 49°
2026-05-06 09:20 -33.68408 151.55165 9504 ft 289 kts 49°
2026-05-06 09:20 -33.67129 151.57055 9825 ft 294 kts 49°
2026-05-06 09:20 -33.65835 151.58966 10134 ft 297 kts 49°
2026-05-06 09:21 -33.64411 151.60842 10439 ft 312 kts 38°
2026-05-06 09:21 -33.62595 151.62375 10771 ft 327 kts 31°
2026-05-06 09:21 -33.60658 151.63860 11090 ft 343 kts 31°
2026-05-06 09:21 -33.58602 151.65437 11405 ft 358 kts 31°
2026-05-06 09:22 -33.56512 151.67062 11694 ft 360 kts 32°
2026-05-06 09:22 -33.54414 151.68713 11977 ft 362 kts 32°
2026-05-06 09:22 -33.52371 151.70329 12219 ft 344 kts 32°
2026-05-06 09:22 -33.50407 151.71861 12505 ft 336 kts 29°
2026-05-06 09:23 -33.48249 151.73058 12848 ft 348 kts 17°
2026-05-06 09:23 -33.45867 151.73839 13193 ft 361 kts 12°
2026-05-06 09:23 -33.43412 151.74569 13501 ft 364 kts 13°
2026-05-06 09:23 -33.40952 151.75318 13815 ft 367 kts 13°
2026-05-06 09:24 -33.38477 151.76092 14104 ft 368 kts 13°
2026-05-06 09:24 -33.35995 151.76879 14394 ft 370 kts 13°
2026-05-06 09:24 -33.33499 151.77682 14672 ft 372 kts 14°
2026-05-06 09:24 -33.30990 151.78493 14959 ft 375 kts 14°
2026-05-06 09:25 -33.28468 151.79310 15247 ft 376 kts 14°
2026-05-06 09:25 -33.25940 151.80129 15539 ft 378 kts 14°
2026-05-06 09:25 -33.23400 151.80950 15824 ft 379 kts 14°
2026-05-06 09:25 -33.20845 151.81775 16126 ft 381 kts 14°
2026-05-06 09:26 -33.18285 151.82600 16431 ft 382 kts 14°
2026-05-06 09:26 -33.15709 151.83430 16736 ft 384 kts 14°
2026-05-06 09:26 -33.13121 151.84263 17051 ft 386 kts 14°
2026-05-06 09:26 -33.10527 151.85097 17348 ft 388 kts 14°
2026-05-06 09:27 -33.07914 151.85937 17662 ft 389 kts 14°
2026-05-06 09:27 -33.05295 151.86779 17982 ft 391 kts 14°
2026-05-06 09:27 -33.02658 151.87625 18210 ft 395 kts 14°
2026-05-06 09:27 -33.00001 151.88478 18183 ft 395 kts 14°
2026-05-06 09:28 -32.97362 151.89324 18186 ft 391 kts 14°
2026-05-06 09:28 -32.94745 151.90163 18189 ft 389 kts 14°
2026-05-06 09:28 -32.92132 151.91000 18192 ft 388 kts 14°
2026-05-06 09:28 -32.89526 151.91834 18206 ft 388 kts 14°
2026-05-06 09:29 -32.86915 151.92669 18205 ft 389 kts 14°
2026-05-06 09:29 -32.84300 151.93505 18198 ft 389 kts 14°
2026-05-06 09:29 -32.81680 151.94342 18198 ft 390 kts 14°
2026-05-06 09:29 -32.79059 151.95178 18188 ft 391 kts 14°
2026-05-06 09:30 -32.76430 151.96017 18191 ft 391 kts 14°
2026-05-06 09:30 -32.73805 151.96854 18200 ft 391 kts 14°
2026-05-06 09:30 -32.71172 151.97693 18189 ft 392 kts 14°
2026-05-06 09:30 -32.68540 151.98532 18204 ft 392 kts 14°
2026-05-06 09:31 -32.65909 151.99369 18197 ft 392 kts 14°
2026-05-06 09:31 -32.63276 152.00207 18198 ft 392 kts 14°
2026-05-06 09:31 -32.60613 152.01053 18500 ft 399 kts 14°
2026-05-06 09:31 -32.57942 152.01901 19170 ft 396 kts 13°
2026-05-06 09:32 -32.55279 152.02747 19784 ft 397 kts 13°
2026-05-06 09:32 -32.52602 152.03596 20285 ft 400 kts 13°
2026-05-06 09:32 -32.49900 152.04452 20763 ft 403 kts 12°
2026-05-06 09:32 -32.47179 152.05314 21257 ft 406 kts 12°
2026-05-06 09:33 -32.44481 152.06168 21745 ft 409 kts 12°
2026-05-06 09:33 -32.41727 152.07040 22242 ft 411 kts 11°
2026-05-06 09:33 -32.38957 152.07916 22721 ft 413 kts 11°
2026-05-06 09:33 -32.36172 152.08796 23184 ft 416 kts 11°
2026-05-06 09:34 -32.33365 152.09682 23638 ft 419 kts 11°
2026-05-06 09:34 -32.30541 152.10573 24039 ft 421 kts 11°
2026-05-06 09:34 -32.27701 152.11469 24421 ft 423 kts 11°
2026-05-06 09:34 -32.24851 152.12368 24804 ft 425 kts 10°
2026-05-06 09:35 -32.21979 152.13273 25172 ft 427 kts 10°
2026-05-06 09:35 -32.19108 152.14178 25554 ft 429 kts 10°
2026-05-06 09:35 -32.16218 152.15087 25905 ft 431 kts
2026-05-06 09:35 -32.13308 152.16002 26246 ft 433 kts
2026-05-06 09:36 -32.10392 152.16918 26576 ft 436 kts
2026-05-06 09:36 -32.07455 152.17840 26909 ft 438 kts
2026-05-06 09:36 -32.04505 152.18766 27244 ft 440 kts
2026-05-06 09:36 -32.01543 152.19695 27552 ft 442 kts
2026-05-06 09:37 -31.98564 152.20628 27857 ft 444 kts
2026-05-06 09:37 -31.95571 152.21566 28174 ft 446 kts
2026-05-06 09:37 -31.92572 152.22505 28477 ft 448 kts
2026-05-06 09:37 -31.89553 152.23449 28762 ft 450 kts
2026-05-06 09:38 -31.86518 152.24397 29034 ft 452 kts
2026-05-06 09:38 -31.83475 152.25348 29314 ft 454 kts
2026-05-06 09:38 -31.80415 152.26303 29604 ft 455 kts
2026-05-06 09:38 -31.77353 152.27259 29971 ft 455 kts
2026-05-06 09:39 -31.74302 152.28213 30401 ft 452 kts
2026-05-06 09:39 -31.71268 152.29161 30784 ft 450 kts
2026-05-06 09:39 -31.68250 152.30102 31125 ft 449 kts
2026-05-06 09:39 -31.65230 152.31042 31427 ft 449 kts
2026-05-06 09:40 -31.62212 152.31979 31706 ft 448 kts
2026-05-06 09:40 -31.59198 152.32915 32041 ft 447 kts
2026-05-06 09:40 -31.53206 152.34775 32684 ft 444 kts
2026-05-06 09:41 -31.50217 152.35702 32966 ft 444 kts
2026-05-06 09:41 -31.47235 152.36625 33273 ft 443 kts
2026-05-06 09:41 -31.44261 152.37547 33609 ft 441 kts
2026-05-06 09:41 -31.41296 152.38464 33902 ft 441 kts
2026-05-06 09:42 -31.38333 152.39380 34178 ft 440 kts
2026-05-06 09:42 -31.35375 152.40295 34443 ft 439 kts
2026-05-06 09:42 -31.32416 152.41208 34631 ft 439 kts
2026-05-06 09:42 -31.29462 152.42119 34828 ft 439 kts
2026-05-06 09:43 -31.26545 152.43018 35011 ft 439 kts
2026-05-06 09:43 -31.23554 152.43939 35201 ft 440 kts
2026-05-06 09:43 -31.17613 152.45767 35194 ft 441 kts
2026-05-06 09:44 -31.11744 152.47576 35189 ft 437 kts
2026-05-06 09:44 -31.05882 152.49379 35194 ft 434 kts
2026-05-06 09:45 -31.00040 152.51169 35192 ft 434 kts
2026-05-06 09:45 -30.94202 152.52956 35189 ft 434 kts
2026-05-06 09:46 -30.88361 152.54744 35198 ft 434 kts
2026-05-06 09:46 -30.82510 152.56532 35191 ft 435 kts
2026-05-06 09:47 -30.76687 152.58669 35196 ft 444 kts 12°
2026-05-06 09:47 -30.70940 152.61389 35200 ft 448 kts 13°
2026-05-06 09:48 -30.65175 152.64146 35206 ft 449 kts 12°
2026-05-06 09:48 -30.59377 152.66862 35167 ft 449 kts 12°
2026-05-06 09:49 -30.53572 152.69550 35188 ft 450 kts 12°
2026-05-06 09:49 -30.47757 152.72234 35202 ft 450 kts 12°
2026-05-06 09:50 -30.41930 152.74920 35200 ft 451 kts 12°
2026-05-06 09:50 -30.36097 152.77608 35200 ft 452 kts 12°
2026-05-06 09:51 -30.30255 152.80297 35203 ft 452 kts 12°
2026-05-06 09:51 -30.24445 152.82968 35197 ft 452 kts 12°
2026-05-06 09:52 -30.18606 152.85649 35202 ft 451 kts 12°
2026-05-06 09:52 -30.12782 152.88320 35191 ft 450 kts 12°
2026-05-06 09:53 -30.06966 152.90980 35181 ft 449 kts 12°
2026-05-06 09:53 -30.04063 152.92304 34883 ft 450 kts 12°
2026-05-06 09:53 -30.01174 152.93625 34570 ft 443 kts 12°
2026-05-06 09:54 -29.98319 152.94932 34163 ft 440 kts 12°
2026-05-06 09:54 -29.95488 152.96226 33717 ft 436 kts 12°
2026-05-06 09:54 -29.92681 152.97507 33272 ft 432 kts 12°
2026-05-06 09:54 -29.89899 152.98774 32859 ft 428 kts 12°
2026-05-06 09:55 -29.87142 153.00029 32465 ft 424 kts 12°
2026-05-06 09:55 -29.84407 153.01273 32133 ft 421 kts 12°
2026-05-06 09:55 -29.81691 153.02507 31673 ft 418 kts 12°
2026-05-06 09:55 -29.78993 153.03732 31281 ft 415 kts 12°
2026-05-06 09:56 -29.76315 153.04948 30890 ft 413 kts 12°
2026-05-06 09:56 -29.73606 153.06170 30530 ft 426 kts 13°
2026-05-06 09:56 -29.70781 153.07434 30034 ft 445 kts 13°
2026-05-06 09:56 -29.67845 153.08750 29583 ft 462 kts 14°
2026-05-06 09:57 -29.64844 153.10106 29087 ft 463 kts 14°
2026-05-06 09:57 -29.61859 153.11468 28617 ft 460 kts 14°
2026-05-06 09:57 -29.58894 153.12821 28150 ft 456 kts 14°
2026-05-06 09:57 -29.55958 153.14159 27704 ft 453 kts 14°
2026-05-06 09:58 -29.53037 153.15485 27252 ft 450 kts 14°
2026-05-06 09:58 -29.50134 153.16799 26805 ft 447 kts 15°
2026-05-06 09:58 -29.47251 153.18100 26336 ft 445 kts 14°
2026-05-06 09:58 -29.44374 153.19398 25904 ft 442 kts 15°
2026-05-06 09:59 -29.41521 153.20683 25479 ft 440 kts 15°
2026-05-06 09:59 -29.38676 153.21964 25039 ft 439 kts 15°
2026-05-06 09:59 -29.35838 153.23240 24583 ft 437 kts 15°
2026-05-06 09:59 -29.33010 153.24512 24138 ft 436 kts 15°
2026-05-06 10:00 -29.30195 153.25778 23674 ft 434 kts 15°
2026-05-06 10:00 -29.27391 153.27038 23169 ft 431 kts 15°
2026-05-06 10:00 -29.24614 153.28287 22708 ft 426 kts 15°
2026-05-06 10:00 -29.21868 153.29522 22253 ft 421 kts 15°
2026-05-06 10:01 -29.19156 153.30740 21836 ft 416 kts 16°
2026-05-06 10:01 -29.16475 153.31943 21410 ft 412 kts 16°
2026-05-06 10:01 -29.13824 153.33130 20998 ft 407 kts 16°
2026-05-06 10:01 -29.11196 153.34307 20583 ft 404 kts 16°
2026-05-06 10:02 -29.08591 153.35472 20177 ft 400 kts 16°
2026-05-06 10:02 -29.06006 153.36628 19771 ft 397 kts 16°
2026-05-06 10:02 -29.03439 153.37776 19354 ft 395 kts 17°
2026-05-06 10:02 -29.00888 153.38915 18956 ft 393 kts 17°
2026-05-06 10:03 -28.98349 153.40048 18539 ft 391 kts 17°
2026-05-06 10:03 -28.95815 153.41179 18072 ft 390 kts 17°
2026-05-06 10:03 -28.93333 153.42288 17655 ft 388 kts 17°
2026-05-06 10:03 -28.90828 153.43405 17244 ft 385 kts 18°
2026-05-06 10:04 -28.88349 153.44511 16832 ft 380 kts 17°
2026-05-06 10:04 -28.85899 153.45603 16422 ft 376 kts 18°
2026-05-06 10:04 -28.83482 153.46680 16039 ft 370 kts 18°
2026-05-06 10:04 -28.81098 153.47742 15658 ft 365 kts 18°
2026-05-06 10:05 -28.78743 153.48789 15285 ft 361 kts 18°
2026-05-06 10:05 -28.76414 153.49825 14909 ft 357 kts 18°
2026-05-06 10:05 -28.74110 153.50849 14530 ft 354 kts 18°
2026-05-06 10:05 -28.71830 153.51862 14174 ft 350 kts 18°
2026-05-06 10:06 -28.69567 153.52867 13801 ft 347 kts 19°
2026-05-06 10:06 -28.67324 153.53863 13407 ft 344 kts 18°
2026-05-06 10:06 -28.65108 153.54847 13121 ft 338 kts 18°
2026-05-06 10:06 -28.62930 153.55813 12773 ft 334 kts 19°
2026-05-06 10:07 -28.61469 153.56461 12549 ft 332 kts 18°
2026-05-06 10:07 -28.59356 153.57397 12213 ft 329 kts 19°
2026-05-06 10:07 -28.57212 153.58346 11870 ft 326 kts 19°
2026-05-06 10:07 -28.55134 153.59266 11524 ft 323 kts 19°
2026-05-06 10:08 -28.53051 153.60187 11191 ft 320 kts 19°
2026-05-06 10:08 -28.50975 153.61056 10863 ft 316 kts 18°
2026-05-06 10:08 -28.48894 153.61834 10546 ft 313 kts 17°
2026-05-06 10:08 -28.46852 153.62581 10363 ft 305 kts 17°
2026-05-06 10:09 -28.44858 153.63319 10200 ft 298 kts 18°
2026-05-06 10:09 -28.42933 153.64039 10042 ft 285 kts 18°
2026-05-06 10:09 -28.41102 153.64728 9891 ft 274 kts 18°
2026-05-06 10:09 -28.39272 153.65416 9509 ft 277 kts 18°
2026-05-06 10:10 -28.37464 153.66078 9416 ft 267 kts 18°
2026-05-06 10:10 -28.35721 153.66709 9009 ft 265 kts 18°
2026-05-06 10:10 -28.33966 153.67344 8667 ft 265 kts 18°
2026-05-06 10:10 -28.32209 153.67981 8370 ft 264 kts 18°
2026-05-06 10:11 -28.30456 153.68617 8079 ft 265 kts 18°
2026-05-06 10:11 -28.28680 153.69162 7795 ft 266 kts
2026-05-06 10:11 -28.26866 153.68850 7535 ft 266 kts 342°
2026-05-06 10:11 -28.25125 153.68149 7258 ft 266 kts 341°
2026-05-06 10:12 -28.23394 153.67435 6972 ft 262 kts 341°
2026-05-06 10:12 -28.21707 153.66743 6713 ft 253 kts 341°
2026-05-06 10:12 -28.20071 153.66079 6442 ft 245 kts 341°
2026-05-06 10:12 -28.18490 153.65442 6171 ft 237 kts 341°
2026-05-06 10:13 -28.16959 153.64828 5905 ft 229 kts 341°
2026-05-06 10:13 -28.15482 153.64236 5670 ft 220 kts 341°
2026-05-06 10:13 -28.14074 153.63672 5447 ft 211 kts 341°
2026-05-06 10:13 -28.12690 153.63117 5245 ft 212 kts 341°
2026-05-06 10:14 -28.11286 153.62555 5065 ft 218 kts 341°
2026-05-06 10:14 -28.09850 153.61980 4919 ft 219 kts 341°
2026-05-06 10:14 -28.08401 153.61400 4797 ft 221 kts 341°
2026-05-06 10:14 -28.06955 153.60822 4697 ft 219 kts 341°
2026-05-06 10:15 -28.05517 153.60248 4588 ft 219 kts 341°
2026-05-06 10:15 -28.04074 153.59671 4495 ft 219 kts 340°
2026-05-06 10:15 -28.02741 153.58922 4276 ft 212 kts 313°
2026-05-06 10:15 -28.02077 153.57521 4188 ft 202 kts 279°
2026-05-06 10:16 -28.01949 153.55948 4096 ft 201 kts 266°
2026-05-06 10:16 -28.01991 153.54404 4023 ft 199 kts 262°
2026-05-06 10:16 -28.02046 153.52754 3616 ft 209 kts 262°
2026-05-06 10:16 -28.02094 153.51119 3335 ft 210 kts 265°
2026-05-06 10:17 -28.02136 153.49482 3135 ft 204 kts 262°
2026-05-06 10:17 -28.02527 153.48031 3052 ft 182 kts 227°
2026-05-06 10:17 -28.03497 153.47174 2660 ft 181 kts 200°
2026-05-06 10:17 -28.04694 153.46932 2340 ft 172 kts 178°
2026-05-06 10:18 -28.05863 153.46917 2089 ft 165 kts 180°
2026-05-06 10:18 -28.06978 153.46893 1859 ft 155 kts 179°
2026-05-06 10:18 -28.07996 153.46875 1712 ft 143 kts 179°
2026-05-06 10:18 -28.08996 153.46860 1525 ft 142 kts 178°
2026-05-06 10:19 -28.09958 153.46850 1349 ft 135 kts 177°
2026-05-06 10:19 -28.10849 153.47109 1208 ft 133 kts 159°
2026-05-06 10:19 -28.11685 153.47567 1029 ft 134 kts 155°
2026-05-06 10:19 -28.12514 153.48078 834 ft 138 kts 155°
2026-05-06 10:20 -28.13369 153.48619 658 ft 144 kts 155°
2026-05-06 10:20 -28.14269 153.49192 423 ft 150 kts 152°
2026-05-06 10:20 -28.15141 153.49757 209 ft 140 kts 153°
2026-05-06 10:20 -28.16000 153.50297 28 ft 139 kts 152°
2026-05-06 10:21 -28.16704 153.50741 28 ft 86 kts 151°
2026-05-06 10:21 -28.17050 153.50959 27 ft 42 kts 151°
2026-05-06 10:21 -28.17301 153.51114 29 ft 39 kts 152°
2026-05-06 10:21 -28.17450 153.51226 29 ft 17 kts 124°
2026-05-06 10:22 -28.17435 153.51340 30 ft 10 kts 58°
2026-05-06 10:22 -28.17379 153.51376 26 ft 10 kts 355°
2026-05-06 10:22 -28.17318 153.51346 28 ft 9 kts 329°
2026-05-06 10:22 -28.17262 153.51310 27 ft 9 kts 330°
2026-05-06 10:23 -28.17207 153.51275 29 ft 9 kts 332°
2026-05-06 10:23 -28.17153 153.51242 26 ft 9 kts 330°
2026-05-06 10:23 -28.17098 153.51238 26 ft 8 kts 30°
2026-05-06 10:23 -28.17082 153.51252 26 ft 0 kts 35°
2026-05-06 10:24 -28.17079 153.51254 27 ft 2 kts 35°
2026-05-06 10:24 -28.17039 153.51269 25 ft 8 kts 357°
2026-05-06 10:24 -28.16989 153.51244 26 ft 8 kts 329°
2026-05-06 10:24 -28.16943 153.51214 28 ft 8 kts 331°
2026-05-06 10:25 -28.16898 153.51186 28 ft 7 kts 330°
2026-05-06 10:25 -28.16858 153.51160 28 ft 6 kts 333°
2026-05-06 10:25 -28.16832 153.51167 26 ft 4 kts 41°
2026-05-06 10:25 -28.16818 153.51191 25 ft 4 kts 61°
2026-05-06 10:26 -28.16807 153.51216 25 ft 3 kts 62°
2026-05-06 10:26 -28.16796 153.51237 26 ft 2 kts 60°
2026-05-06 10:26 -28.16792 153.51246 25 ft 1 kts 60°
2026-05-06 10:26 -28.16789 153.51251 25 ft 0 kts 60°